SCP
-0 -0 -0 -0 -0 -0 -0 -0 0 -0 -0 0 0 0 0 0 0 0 0 0 0 0 0 -0 0 -0 0 0 0 0 0 0
-0 -0 -0 -0 -0 -0 -0 -0 0 0 0 0 0 0 0 0 0 0 0 0 0 0 0 0 -0 0 0 0 0 0 0 0
-0 -0 -0 -0 -0 -0 -0 0 0 0 -0 0 0 0 0 0 0 0 0 0 0 0 0 0 0 0 0 0 0 0 0 0
-0 -0 -0 -0 -0 -0 -0 -0 -0 0 0 0 0 0 0 0 0 0 0 0 0 0 0 0 0 0 0 0 0 0 0 0
0 -0 -0 -0 -0 -0 -0 -0 0 0 0 0 0 0 0 0 0 0 0 0 0 0 0 0 0 0 0 0 0 0 0 0
0 0 0 -0 -0 -0 -0 0 0 0 0 0 0 0 0 0 0 0 0 0 0 0 0 0 0 0 0 0 0 0 0 0
0 0 0 -0 -0 0 0 0 0 0 0 0 0 0 0 0 0 0 0 0 0 0 0 0 0 0 0 0 0 0 0 0
0 0 0 0 0 0 -0 0 0 0 0 0 0 0 0 0 0 0 0 0 0 0 0 0 0 0 0 0 0 0 0 0
0 0 0 0 0 1 1 1 0 0 0 0 0 0 0 0 0 0 0 0 0 0 0 0 0 0 0 0 0 0 0 0
0 0 0 0 1 1 1 1 0 0 0 0 0 0 0 0 0 0 0 0 0 0 0 0 0 0 0 0 0 0 0 0
0 0 0 1 1 1 1 0 0 0 0 0 0 0 0 0 0 0 0 0 0 0 0 0 0 0 0 0 0 0 0 0
1 1 0 0 1 1 0 0 1 0 0 0 0 0 0 0 0 0 0 0 0 0 0 0 0 0 0 0 0 0 0 0
0 0 0 1 1 0 0 0 1 0 0 0 0 0 0 0 0 0 0 0 0 0 0 0 0 0 0 0 0 0 0 0
0 -0 -0 0 0 0 0 0 0 0 0 0 0 0 0 0 0 0 0 0 0 0 0 0 0 0 0 0 0 0 0 0
-0 0 0 0 0 0 0 0 0 0 0 0 0 0 0 0 0 0 0 0 0 0 0 0 0 0 0 0 0 0 0 0
-0 -0 -0 0 0 0 0 0 0 0 0 0 0 0 0 0 0 0 0 0 0 0 0 0 0 0 0 0 0 0 0 0
-0 -0 -0 -0 0 0 0 0 0 0 0 0 0 0 0 0 0 0 0 0 0 0 0 0 0 0 0 0 0 0 0 0
0 0 0 0 0 0 0 0 0 0 0 0 0 0 0 0 0 0 0 0 0 0 0 0 0 0 0 0 0 0 0 0
0 0 0 0 0 0 0 0 0 0 0 0 0 0 0 0 0 0 0 0 0 0 0 0 0 0 0 0 0 0 0 0
0 0 0 0 0 0 0 0 1 0 0 0 0 0 0 0 0 0 0 0 0 0 0 0 0 0 0 0 0 0 0 0
Wind_Speed_500mb
40 38 36 38 37 35 32 30 30 27 22 20 15 12 9 6 4 1 2 6 7 5 7 10 10 19 10 15 18 19 23 21
41 39 35 37 37 35 32 28 28 27 20 17 14 12 11 5 4 5 6 3 4 4 3 5 7 5 9 11 13 20 23 24
37 34 30 29 32 32 29 29 25 24 20 15 13 13 9 8 5 6 4 2 4 6 6 4 6 5 5 9 11 15 18 21
27 30 29 28 27 28 28 35 27 22 19 19 20 19 14 6 6 8 6 3 7 7 5 4 4 5 6 7 8 10 13 15
32 36 35 30 26 29 33 32 29 29 26 20 15 13 7 18 11 7 6 5 6 3 1 2 3 2 3 7 8 8 9 10
29 34 34 34 32 30 30 30 32 33 28 25 17 18 11 15 9 13 9 7 6 4 2 3 4 3 7 8 9 7 6 7
31 35 38 38 37 30 27 28 28 26 25 24 32 34 30 24 16 9 11 9 7 4 5 9 3 5 8 9 9 10 8 7
31 36 38 39 37 38 34 33 29 34 35 24 39 38 37 31 21 17 13 10 8 6 9 8 1 6 8 10 11 9 10 11
28 33 36 34 34 40 29 31 49 50 30 32 44 60 45 34 24 19 19 14 11 7 4 6 2 8 13 11 7 6 6 11
21 26 32 37 36 34 39 50 56 48 34 33 52 41 60 42 20 17 20 19 13 7 4 5 4 4 9 12 13 9 8 13
17 16 22 27 34 41 47 44 46 42 33 30 22 32 47 44 30 21 20 23 15 10 7 6 5 7 6 11 11 13 10 11
9 9 15 23 27 34 37 36 32 36 24 37 27 29 42 35 38 23 21 26 17 12 9 5 6 5 10 10 11 10 12 8
19 11 9 18 22 25 19 20 25 35 19 24 21 24 40 31 30 27 32 30 21 14 10 6 7 5 10 14 13 11 8 9
18 13 11 5 6 6 11 15 22 43 29 19 22 22 26 23 32 34 38 31 25 16 14 9 10 8 8 8 11 10 10 10
15 12 8 9 10 8 7 17 22 33 30 24 24 23 22 29 32 34 35 31 27 22 20 13 10 11 10 11 11 10 7 7
11 8 6 3 6 7 14 19 24 28 30 33 26 26 30 32 31 32 37 30 27 26 22 18 14 14 12 11 11 10 12 8
4 2 1 2 8 16 19 19 25 21 28 27 24 26 34 39 39 42 40 33 28 26 25 22 17 14 14 13 12 14 12 11
3 3 2 4 6 8 11 15 17 20 23 22 24 24 30 37 44 48 46 41 36 31 30 27 21 18 18 18 16 18 19 17
5 4 3 0 4 6 9 10 14 12 12 15 19 20 20 26 38 44 47 44 38 38 35 31 28 22 20 22 22 20 22 21
7 5 5 5 6 7 9 10 11 19 15 15 17 15 17 21 28 37 43 46 46 41 37 34 30 24 23 21 23 22 24 25
Wind_Direction_500mb
178 179 182 184 183 184 181 185 179 181 179 176 181 191 205 209 248 247 288 351 19 59 26 24 37 70 48 53 53 55 60 63
184 182 180 183 186 189 188 189 188 180 187 185 193 195 207 195 281 300 310 342 3 34 57 58 81 99 81 74 60 67 64 65
187 185 181 179 188 192 193 188 191 195 189 193 191 207 210 231 295 283 280 234 313 352 6 96 94 94 82 87 80 78 66 67
184 182 184 183 189 192 194 203 198 197 193 205 213 220 236 245 258 283 288 294 327 338 43 78 89 117 132 106 95 80 81 67
191 188 186 181 184 194 201 205 201 206 204 217 215 238 238 254 286 284 288 302 325 19 46 90 136 153 146 134 116 101 94 77
196 191 186 184 184 200 211 198 204 214 212 218 215 231 218 251 304 297 290 305 331 5 345 306 285 155 170 161 151 155 129 112
201 196 194 191 192 199 208 200 199 201 209 211 238 252 251 258 260 282 284 295 313 328 319 315 310 188 181 173 178 175 195 162
203 203 201 197 194 206 226 225 193 207 222 244 258 256 258 267 268 264 277 277 289 316 307 314 94 180 184 176 180 189 192 191
207 206 204 201 199 208 190 175 197 226 234 276 265 268 260 255 263 276 280 263 275 300 286 310 240 180 189 195 190 193 213 196
218 216 208 201 199 192 190 223 238 241 241 255 287 263 244 236 233 252 269 269 265 277 259 276 198 214 201 196 188 215 234 209
218 214 208 204 195 202 234 248 251 239 221 259 267 226 222 225 223 246 254 271 262 266 266 233 253 164 213 198 206 208 229 223
84 168 186 198 200 217 235 237 230 219 234 263 271 270 241 227 243 228 253 260 253 245 252 249 229 195 215 221 198 197 152 206
66 81 161 195 203 234 224 217 222 205 293 273 284 262 234 241 248 223 244 243 243 236 239 235 240 173 220 204 196 173 197 196
56 71 101 78 169 217 219 221 227 226 288 285 293 260 233 206 233 217 225 229 233 232 227 221 237 220 199 182 190 186 184 194
51 68 87 125 189 202 260 235 236 234 275 271 284 251 234 228 232 223 219 219 223 222 213 210 226 217 207 191 192 205 203 214
47 46 75 49 255 214 292 289 264 246 258 268 275 257 237 234 225 235 216 210 210 223 214 210 230 227 213 205 209 202 220 217
53 42 132 249 259 265 284 272 283 262 264 270 260 258 246 233 225 224 211 209 210 225 219 210 235 234 219 218 201 217 211 208
88 108 188 269 289 294 283 257 253 257 250 255 270 268 260 245 234 225 211 215 218 230 227 216 229 242 232 228 222 228 225 226
149 132 123 50 325 301 278 269 276 276 272 253 269 267 269 251 235 222 215 221 223 233 232 225 228 238 239 227 222 229 236 235
162 131 93 60 32 354 296 282 280 297 288 259 267 260 261 245 221 218 221 228 227 230 232 230 230 231 239 241 233 241 245 243
Wind_Speed_850mb
40 38 36 38 37 35 32 30 30 27 22 20 15 12 9 6 4 1 2 6 7 5 7 10 10 19 10 15 18 19 23 21
41 39 35 37 37 35 32 28 28 27 20 17 14 12 11 5 4 5 6 3 4 4 3 5 7 5 9 11 13 20 23 24
37 34 30 29 32 32 29 29 25 24 20 15 13 13 9 8 5 6 4 2 4 6 6 4 6 5 5 9 11 15 18 21
27 30 29 28 27 28 28 35 27 22 19 19 20 19 14 6 6 8 6 3 7 7 5 4 4 5 6 7 8 10 13 15
32 36 35 30 26 29 33 32 29 29 26 20 15 13 7 18 11 7 6 5 6 3 1 2 3 2 3 7 8 8 9 10
29 34 34 34 32 30 30 30 32 33 28 25 17 18 11 15 9 13 9 7 6 4 2 3 4 3 7 8 9 7 6 7
31 35 38 38 37 30 27 28 28 26 25 24 32 34 30 24 16 9 11 9 7 4 5 9 3 5 8 9 9 10 8 7
31 36 38 39 37 38 34 33 29 34 35 24 39 38 37 31 21 17 13 10 8 6 9 8 1 6 8 10 11 9 10 11
28 33 36 34 34 40 29 31 49 50 30 32 44 60 45 34 24 19 19 14 11 7 4 6 2 8 13 11 7 6 6 11
21 26 32 37 36 34 39 50 56 48 34 33 52 41 60 42 20 17 20 19 13 7 4 5 4 4 9 12 13 9 8 13
17 16 22 27 34 41 47 44 46 42 33 30 22 32 47 44 30 21 20 23 15 10 7 6 5 7 6 11 11 13 10 11
9 9 15 23 27 34 37 36 32 36 24 37 27 29 42 35 38 23 21 26 17 12 9 5 6 5 10 10 11 10 12 8
19 11 9 18 22 25 19 20 25 35 19 24 21 24 40 31 30 27 32 30 21 14 10 6 7 5 10 14 13 11 8 9
18 13 11 5 6 6 11 15 22 43 29 19 22 22 26 23 32 34 38 31 25 16 14 9 10 8 8 8 11 10 10 10
15 12 8 9 10 8 7 17 22 33 30 24 24 23 22 29 32 34 35 31 27 22 20 13 10 11 10 11 11 10 7 7
11 8 6 3 6 7 14 19 24 28 30 33 26 26 30 32 31 32 37 30 27 26 22 18 14 14 12 11 11 10 12 8
4 2 1 2 8 16 19 19 25 21 28 27 24 26 34 39 39 42 40 33 28 26 25 22 17 14 14 13 12 14 12 11
3 3 2 4 6 8 11 15 17 20 23 22 24 24 30 37 44 48 46 41 36 31 30 27 21 18 18 18 16 18 19 17
5 4 3 0 4 6 9 10 14 12 12 15 19 20 20 26 38 44 47 44 38 38 35 31 28 22 20 22 22 20 22 21
7 5 5 5 6 7 9 10 11 19 15 15 17 15 17 21 28 37 43 46 46 41 37 34 30 24 23 21 23 22 24 25
Wind_Direction_850mb
178 179 182 184 183 184 181 185 179 181 179 176 181 191 205 209 248 247 288 351 19 59 26 24 37 70 48 53 53 55 60 63
184 182 180 183 186 189 188 189 188 180 187 185 193 195 207 195 281 300 310 342 3 34 57 58 81 99 81 74 60 67 64 65
187 185 181 179 188 192 193 188 191 195 189 193 191 207 210 231 295 283 280 234 313 352 6 96 94 94 82 87 80 78 66 67
184 182 184 183 189 192 194 203 198 197 193 205 213 220 236 245 258 283 288 294 327 338 43 78 89 117 132 106 95 80 81 67
191 188 186 181 184 194 201 205 201 206 204 217 215 238 238 254 286 284 288 302 325 19 46 90 136 153 146 134 116 101 94 77
196 191 186 184 184 200 211 198 204 214 212 218 215 231 218 251 304 297 290 305 331 5 345 306 285 155 170 161 151 155 129 112
201 196 194 191 192 199 208 200 199 201 209 211 238 252 251 258 260 282 284 295 313 328 319 315 310 188 181 173 178 175 195 162
203 203 201 197 194 206 226 225 193 207 222 244 258 256 258 267 268 264 277 277 289 316 307 314 94 180 184 176 180 189 192 191
207 206 204 201 199 208 190 175 197 226 234 276 265 268 260 255 263 276 280 263 275 300 286 310 240 180 189 195 190 193 213 196
218 216 208 201 199 192 190 223 238 241 241 255 287 263 244 236 233 252 269 269 265 277 259 276 198 214 201 196 188 215 234 209
218 214 208 204 195 202 234 248 251 239 221 259 267 226 222 225 223 246 254 271 262 266 266 233 253 164 213 198 206 208 229 223
84 168 186 198 200 217 235 237 230 219 234 263 271 270 241 227 243 228 253 260 253 245 252 249 229 195 215 221 198 197 152 206
66 81 161 195 203 234 224 217 222 205 293 273 284 262 234 241 248 223 244 243 243 236 239 235 240 173 220 204 196 173 197 196
56 71 101 78 169 217 219 221 227 226 288 285 293 260 233 206 233 217 225 229 233 232 227 221 237 220 199 182 190 186 184 194
51 68 87 125 189 202 260 235 236 234 275 271 284 251 234 228 232 223 219 219 223 222 213 210 226 217 207 191 192 205 203 214
47 46 75 49 255 214 292 289 264 246 258 268 275 257 237 234 225 235 216 210 210 223 214 210 230 227 213 205 209 202 220 217
53 42 132 249 259 265 284 272 283 262 264 270 260 258 246 233 225 224 211 209 210 225 219 210 235 234 219 218 201 217 211 208
88 108 188 269 289 294 283 257 253 257 250 255 270 268 260 245 234 225 211 215 218 230 227 216 229 242 232 228 222 228 225 226
149 132 123 50 325 301 278 269 276 276 272 253 269 267 269 251 235 222 215 221 223 233 232 225 228 238 239 227 222 229 236 235
162 131 93 60 32 354 296 282 280 297 288 259 267 260 261 245 221 218 221 228 227 230 232 230 230 231 239 241 233 241 245 243